Retour au catalogue

CZ-6A DEB

ActifPO
NORAD 61302·DEBRIS·🇨🇳 China

Lancé Aug 6, 2024 depuis Taiyuan Satellite Launch Center

Loading…

Prochains Passages (prochaines 24 heures)

TLE

FraisSource: Space-Track

Époque: Sep 13, 2026, 22:28 UTC

1 61302U 24140TP  26256.93668720  .00006319  00000-0  12897-2 0  9993
2 61302  88.8914 249.7962 0056284 330.9034  28.9044 14.59828912108452

Suivez CZ-6A DEB en temps réel avec AllMySat

Download on the App Store